• In Latvia
  • List of Countries
  • For 7 days
  • Water Temperature
  • Satellite Maps
  • Weather Map
  • Weather Widgets
  • user-avatar
    Login

    Hourly Weather Sarata-Galbena

    Today, 23 June, Saturday

    Time Temperature Precipitation Wind Pressure Humidity
    00:00 +17°C° 0.2 mm 6 mps 749 mmHg 88%
    01:00 +17°C° 0.2 mm 6 mps 749 mmHg 88%
    02:00 +17°C° 0 mm 4 mps 749 mmHg 89%
    03:00 +15°C° 0 mm 5 mps 749 mmHg 88%
    04:00 +15°C° 0 mm 5 mps 749 mmHg 87%
    05:00 +15°C° 0 mm 5 mps 749 mmHg 86%
    06:00 +15°C° 0 mm 5 mps 749 mmHg 83%
    07:00 +16°C° 0 mm 6 mps 750 mmHg 80%
    08:00 +16°C° 0 mm 7 mps 750 mmHg 77%
    09:00 +16°C° 0.1 mm 7 mps 750 mmHg 76%
    10:00 +16°C° 0.1 mm 7 mps 750 mmHg 75%
    11:00 +17°C° 0.1 mm 7 mps 750 mmHg 74%
    12:00 +16°C° 0.1 mm 7 mps 750 mmHg 74%
    13:00 +16°C° 0.1 mm 6 mps 751 mmHg 73%
    14:00 +16°C° 0.1 mm 5 mps 751 mmHg 73%
    15:00 +17°C° 0 mm 6 mps 751 mmHg 68%
    16:00 +19°C° 0 mm 6 mps 751 mmHg 62%
    17:00 +21°C° 0 mm 6 mps 751 mmHg 57%
    18:00 +19°C° 0 mm 6 mps 751 mmHg 62%
    19:00 +16°C° 0 mm 5 mps 751 mmHg 67%
    20:00 +15°C° 0 mm 5 mps 752 mmHg 73%
    21:00 +14°C° 0 mm 4 mps 752 mmHg 75%
    22:00 +13°C° 0 mm 4 mps 753 mmHg 78%
    23:00 +12°C° 0 mm 3 mps 753 mmHg 80%

    Tomorrow, 24 June, Sunday

    Time Temperature Precipitation Wind Pressure Humidity
    00:00 +11°C° 0 mm 3 mps 753 mmHg 82%
    01:00 +12°C° 0 mm 2 mps 754 mmHg 84%
    02:00 +10°C° 0 mm 2 mps 754 mmHg 86%
    03:00 +10°C° 0 mm 2 mps 754 mmHg 86%
    04:00 +10°C° 0 mm 2 mps 754 mmHg 86%
    05:00 +10°C° 0 mm 2 mps 754 mmHg 86%
    06:00 +13°C° 0 mm 2 mps 754 mmHg 78%
    07:00 +14°C° 0 mm 3 mps 754 mmHg 69%
    08:00 +17°C° 0 mm 4 mps 755 mmHg 61%
    09:00 +19°C° 0 mm 3 mps 755 mmHg 56%
    10:00 +20°C° 0 mm 3 mps 755 mmHg 50%
    11:00 +21°C° 0 mm 3 mps 755 mmHg 45%
    12:00 +22°C° 0 mm 3 mps 754 mmHg 43%
    13:00 +24°C° 0 mm 2 mps 754 mmHg 40%
    14:00 +24°C° 0 mm 2 mps 754 mmHg 38%
    15:00 +24°C° 0 mm 2 mps 754 mmHg 38%
    16:00 +24°C° 0 mm 1 mps 754 mmHg 37%
    17:00 +24°C° 0 mm 1 mps 754 mmHg 37%
    18:00 +23°C° 0 mm 1 mps 754 mmHg 42%
    19:00 +21°C° 0 mm 1 mps 754 mmHg 46%
    20:00 +20°C° 0 mm 1 mps 754 mmHg 51%
    21:00 +19°C° 0 mm 1 mps 754 mmHg 53%
    22:00 +19°C° 0 mm 1 mps 754 mmHg 54%
    23:00 +18°C° 0 mm 1 mps 754 mmHg 56%

    Day after tomorrow, 25 June, Monday

    Time Temperature Precipitation Wind Pressure Humidity
    00:00 +16°C° 0 mm 1 mps 754 mmHg 58%
    01:00 +16°C° 0 mm 1 mps 754 mmHg 61%
    02:00 +15°C° 0 mm 1 mps 754 mmHg 63%
    03:00 +15°C° 0 mm 1 mps 755 mmHg 65%
    04:00 +15°C° 0 mm 1 mps 755 mmHg 67%
    05:00 +15°C° 0 mm 1 mps 755 mmHg 69%
    06:00 +18°C° 0 mm 1 mps 755 mmHg 65%
    07:00 +20°C° 0 mm 1 mps 755 mmHg 60%
    08:00 +21°C° 0 mm 1 mps 755 mmHg 55%
    09:00 +23°C° 0 mm 1 mps 755 mmHg 51%
    10:00 +24°C° 0 mm 2 mps 755 mmHg 46%
    11:00 +26°C° 0 mm 2 mps 755 mmHg 41%
    12:00 +26°C° 0 mm 2 mps 755 mmHg 41%
    13:00 +26°C° 0 mm 2 mps 755 mmHg 41%
    14:00 +26°C° 0 mm 3 mps 755 mmHg 40%
    15:00 +26°C° 0 mm 2 mps 755 mmHg 40%
    16:00 +26°C° 0 mm 2 mps 755 mmHg 41%
    17:00 +26°C° 0 mm 2 mps 755 mmHg 41%
    18:00 +25°C° 0 mm 2 mps 755 mmHg 44%
    19:00 +23°C° 0 mm 2 mps 755 mmHg 48%
    20:00 +21°C° 0 mm 2 mps 755 mmHg 52%
    21:00 +21°C° 0 mm 1 mps 756 mmHg 53%
    22:00 +21°C° 0 mm 1 mps 756 mmHg 54%
    23:00 +20°C° 0 mm 1 mps 756 mmHg 55%

    26 June, Tuesday

    Time Temperature Precipitation Wind Pressure Humidity
    00:00 +19°C° 0 mm 1 mps 756 mmHg 56%
    01:00 +19°C° 0 mm 1 mps 756 mmHg 58%
    02:00 +18°C° 0 mm 1 mps 756 mmHg 59%
    03:00 +18°C° 0 mm 1 mps 756 mmHg 61%
    04:00 +17°C° 0 mm 2 mps 756 mmHg 62%
    05:00 +17°C° 0 mm 2 mps 756 mmHg 64%
    06:00 +19°C° 0 mm 2 mps 756 mmHg 60%
    07:00 +21°C° 0 mm 3 mps 756 mmHg 56%
    08:00 +23°C° 0 mm 4 mps 756 mmHg 53%
    09:00 +25°C° 0 mm 4 mps 756 mmHg 48%
    10:00 +26°C° 0 mm 4 mps 756 mmHg 43%
    11:00 +27°C° 0 mm 4 mps 756 mmHg 38%
    12:00 +28°C° 0 mm 4 mps 755 mmHg 38%
    13:00 +28°C° 0 mm 4 mps 755 mmHg 38%
    14:00 +28°C° 0 mm 4 mps 755 mmHg 37%
    15:00 +28°C° 0 mm 4 mps 755 mmHg 38%
    16:00 +28°C° 0 mm 4 mps 754 mmHg 39%
    17:00 +28°C° 0 mm 5 mps 754 mmHg 40%
    18:00 +26°C° 0 mm 4 mps 754 mmHg 46%
    19:00 +23°C° 0 mm 4 mps 754 mmHg 53%
    20:00 +22°C° 0 mm 3 mps 754 mmHg 59%
    21:00 +21°C° 0 mm 4 mps 754 mmHg 62%
    22:00 +20°C° 0 mm 4 mps 754 mmHg 65%
    23:00 +20°C° 0 mm 4 mps 754 mmHg 69%

    27 June, Wednesday

    Time Temperature Precipitation Wind Pressure Humidity
    00:00 +19°C° 0 mm 4 mps 754 mmHg 71%
    01:00 +19°C° 0 mm 4 mps 754 mmHg 74%
    02:00 +18°C° 0 mm 4 mps 754 mmHg 76%
    03:00 +18°C° 0 mm 4 mps 754 mmHg 78%
    04:00 +17°C° 0 mm 4 mps 753 mmHg 80%
    05:00 +17°C° 0 mm 4 mps 753 mmHg 82%
    06:00 +19°C° 0 mm 4 mps 753 mmHg 76%
    07:00 +21°C° 0 mm 5 mps 753 mmHg 70%
    08:00 +23°C° 0 mm 6 mps 753 mmHg 63%
    09:00 +24°C° 0 mm 6 mps 753 mmHg 59%
    10:00 +26°C° 0 mm 6 mps 752 mmHg 54%
    11:00 +28°C° 0 mm 6 mps 752 mmHg 50%
    12:00 +28°C° 0 mm 6 mps 752 mmHg 49%
    13:00 +29°C° 0 mm 6 mps 751 mmHg 49%
    14:00 +29°C° 0 mm 6 mps 751 mmHg 48%
    15:00 +29°C° 0.6 mm 5 mps 751 mmHg 53%
    16:00 +28°C° 0.6 mm 4 mps 751 mmHg 58%
    17:00 +27°C° 0.6 mm 4 mps 750 mmHg 63%
    18:00 +26°C° 1.9 mm 4 mps 750 mmHg 69%
    19:00 +23°C° 1.9 mm 4 mps 750 mmHg 75%
    20:00 +22°C° 1.9 mm 4 mps 750 mmHg 81%
    21:00 +22°C° 3.1 mm 4 mps 750 mmHg 84%
    22:00 +21°C° 3.1 mm 4 mps 750 mmHg 86%
    23:00 +21°C° 3.1 mm 4 mps 750 mmHg 89%

    28 June, Thursday

    Time Temperature Precipitation Wind Pressure Humidity
    00:00 +21°C° 1.3 mm 4 mps 750 mmHg 90%
    01:00 +20°C° 1.3 mm 4 mps 749 mmHg 90%
    02:00 +20°C° 1.3 mm 4 mps 749 mmHg 91%
    03:00 +20°C° 0.8 mm 4 mps 749 mmHg 92%
    04:00 +20°C° 0.8 mm 4 mps 749 mmHg 93%
    05:00 +20°C° 0.8 mm 4 mps 748 mmHg 95%
    06:00 +20°C° 0.6 mm 4 mps 748 mmHg 93%
    07:00 +21°C° 0.6 mm 3 mps 748 mmHg 90%
    08:00 +22°C° 0.6 mm 3 mps 748 mmHg 88%
    09:00 +24°C° 1.7 mm 3 mps 748 mmHg 83%
    10:00 +25°C° 1.7 mm 3 mps 748 mmHg 77%
    11:00 +26°C° 1.7 mm 3 mps 748 mmHg 72%
    12:00 +27°C° 1.2 mm 3 mps 748 mmHg 69%
    13:00 +27°C° 1.2 mm 4 mps 748 mmHg 67%
    14:00 +28°C° 1.2 mm 4 mps 748 mmHg 64%
    15:00 +27°C° 0.1 mm 4 mps 748 mmHg 65%
    16:00 +27°C° 0.1 mm 4 mps 748 mmHg 66%
    17:00 +27°C° 0.1 mm 4 mps 748 mmHg 67%
    18:00 +25°C° 0 mm 4 mps 748 mmHg 74%
    19:00 +24°C° 0 mm 3 mps 748 mmHg 80%
    20:00 +21°C° 0 mm 3 mps 748 mmHg 87%
    21:00 +20°C° 0 mm 3 mps 748 mmHg 89%
    22:00 +20°C° 0 mm 2 mps 749 mmHg 91%
    23:00 +19°C° 0 mm 2 mps 749 mmHg 93%
    Show more